{"data":{"norad_id":54847,"epoch":"2026-09-20T21:21:04.369824Z","epoch_age_seconds":59633,"freshness":"FRESH","line1":"1 54847U 22177AD  26263.88963391 -.00000193  00000+0  25160-5 0  9995","line2":"2 54847  43.0025  87.9008 0001192 263.7962  96.2754 15.27576098207073","mean_motion":15.27576098,"eccentricity":0.0001192,"inclination_deg":43.0025,"raan_deg":87.9008,"arg_perigee_deg":263.7962,"mean_anomaly_deg":96.2754,"bstar":2.516e-6,"rev_number":20707,"period_min":94.266989506142,"perigee_km":482.24292528088,"apogee_km":483.87863483164,"semimajor_km":6861.1977800563,"source":"CELESTRAK","updated_at":"2026-09-21T09:00:33.137422Z"}}